Location: Baggett Branch
(32.6074°N, 97.0167°W)
Time: 10:13:39
(UTC+00:00)

COSMO-SKYMED 1 - Pass Details

Date: 10 February 2026
Orbit: 577 x 578 km, 97.9° (Epoch: 8 March)

Event Time Altitude Azimuth Distance (km) Brightness Sun altitude
Rises 12:25:01 0° 177° (S) 2,781 6.1 -11.2°
Reaches altitude 10° 12:27:12 10° 182° (S) 1,886 5.2 -10.7°
Maximum altitude 12:31:12 54° 260° (W) 707 2.5 -9.9°
Drops below altitude 10° 12:35:14 10° 338° (NNW) 1,897 4.7 -9.1°
Sets 12:37:26 0° 343° (NNW) 2,800 5.6 -8.6°
